TimeMDT,TemperatureF,Dew PointF,Humidity,Sea Level PressureIn,VisibilityMPH,Wind Direction,Wind SpeedMPH,Gust SpeedMPH,PrecipitationIn,Events,Conditions,WindDirDegrees,DateUTC
12:53 AM,59.0,37.0,44,29.73,10.0,West,5.8,-,N/A,,Clear,270,2013-05-14 06:53:00
1:53 AM,60.1,35.1,39,29.69,10.0,West,5.8,-,N/A,,Clear,280,2013-05-14 07:53:00
2:53 AM,62.1,34.0,35,29.67,10.0,West,6.9,-,N/A,,Clear,260,2013-05-14 08:53:00
3:53 AM,60.1,34.0,38,29.68,10.0,Calm,Calm,-,N/A,,Clear,0,2013-05-14 09:53:00
4:53 AM,57.9,32.0,37,29.69,10.0,WSW,4.6,-,N/A,,Clear,240,2013-05-14 10:53:00
5:53 AM,59.0,32.0,36,29.71,10.0,West,3.5,-,N/A,,Clear,260,2013-05-14 11:53:00
6:53 AM,64.0,34.0,33,29.74,10.0,NNW,5.8,-,N/A,,Clear,340,2013-05-14 12:53:00
7:53 AM,64.9,39.0,39,29.77,10.0,North,10.4,19.6,N/A,,Clear,350,2013-05-14 13:53:00
8:53 AM,66.9,41.0,39,29.78,10.0,North,8.1,16.1,N/A,,Clear,350,2013-05-14 14:53:00
9:53 AM,71.1,41.0,34,29.79,10.0,Calm,Calm,-,N/A,,Clear,0,2013-05-14 15:53:00
10:53 AM,73.9,39.0,28,29.79,10.0,South,15.0,19.6,N/A,,Clear,170,2013-05-14 16:53:00
11:53 AM,73.9,39.9,29,29.82,10.0,WSW,12.7,20.7,N/A,,Clear,240,2013-05-14 17:53:00
12:53 PM,75.0,39.0,27,29.80,10.0,Variable,6.9,20.7,N/A,,Clear,0,2013-05-14 18:53:00
1:53 PM,73.0,45.0,37,29.78,10.0,SSE,8.1,-,N/A,,Partly Cloudy,160,2013-05-14 19:53:00
2:53 PM,71.1,45.0,39,29.78,10.0,ESE,10.4,20.7,N/A,,Mostly Cloudy,110,2013-05-14 20:53:00
3:53 PM,71.1,45.0,39,29.78,10.0,ESE,11.5,18.4,N/A,,Clear,110,2013-05-14 21:53:00
4:53 PM,70.0,43.0,38,29.78,10.0,East,13.8,19.6,N/A,,Clear,100,2013-05-14 22:53:00
5:53 PM,66.9,42.1,40,29.78,10.0,East,11.5,-,N/A,,Clear,80,2013-05-14 23:53:00
6:53 PM,64.9,37.9,37,29.78,10.0,East,11.5,18.4,N/A,,Clear,80,2013-05-15 00:53:00
7:53 PM,61.0,37.0,41,29.78,10.0,East,11.5,-,N/A,,Clear,80,2013-05-15 01:53:00
8:53 PM,59.0,34.0,39,29.81,10.0,East,5.8,-,N/A,,Clear,80,2013-05-15 02:53:00
9:53 PM,57.0,33.1,40,29.81,10.0,ENE,9.2,-,N/A,,Clear,60,2013-05-15 03:53:00
10:53 PM,57.0,30.9,37,29.82,10.0,ENE,11.5,-,N/A,,Clear,70,2013-05-15 04:53:00
11:53 PM,54.0,28.9,38,29.83,10.0,ENE,10.4,-,N/A,,Clear,60,2013-05-15 05:53:00